Charlotte, NC

11:39 PM EDT on August 25, 2016 (GMT -0400)
Charlotte-Douglas International

Weather History for KCLT - May, 2012

Change the Weather History Date:

Monday, May 28, 2012

  Actual Average Record
Temperature  
Mean Temperature 79 °F 71 °F  
Max Temperature 87 °F 82 °F 97 °F (1941)
Min Temperature 70 °F 60 °F 42 °F (1961)
Degree Days  
Heating Degree Days 0 1  
Month to date heating degree days 11 52  
Since 1 July heating degree days 2597 3384  
Cooling Degree Days 14 6  
Month to date cooling degree days 187 105  
Year to date cooling degree days 294 142  
Growing Degree Days 28 (Base 50)    
Moisture  
Dew Point 66 °F    
Average Humidity 71    
Maximum Humidity 90    
Minimum Humidity 51    
Precipitation  
Precipitation T in 0.12 in 2.70 in (1990)
Month to date precipitation 5.89 2.83  
Year to date precipitation 15.03 16.61  
Snow  
Snow 0.00 in 0.00 in 0.00 in ()
Month to date snowfall 0.0 0.0  
Since 1 July snowfall T 4.3  
Snow Depth 0.00 in    
Sea Level Pressure  
Sea Level Pressure 30.05 in    
Wind  
Wind Speed 7 mph (SE)    
Max Wind Speed 24 mph    
Max Gust Speed 30 mph    
Visibility 10 miles    
Events      
T = Trace of Precipitation, MM = Missing Value Source: NWS Daily Summary

Daily Weather History Graph

Daily Weather History Graph

Search for Another Location

Airport or City:

Trip Planner

Search our weather history database for the weather conditions in past years. The results will help you decide how hot, cold, wet, or windy it might be!

Date:

Astronomy

May. 28, 2012 Rise Set
Actual Time 6:11 AM EDT 8:30 PM EDT
Civil Twilight 5:42 AM EDT 9:00 PM EDT
Nautical Twilight 5:06 AM EDT 9:35 PM EDT
Astronomical Twilight 4:28 AM EDT 10:14 PM EDT
Moon 1:09 PM EDT (5/28) 1:16 AM EDT (5/28)
Length of Visible Light 15h 17m
Length of Day
14h 19m
Waxing Crescent, 48% of the Moon is Illuminated
May 28
Waxing Crescent
May 28
First Quarter
Jun 4
Full
Jun 11
Last Quarter
Jun 19
New

Hourly Weather History & Observations

Time (EDT) Temp. Heat Index Dew Point Humidity Pressure Visibility Wind Dir Wind Speed Gust Speed Precip Events Conditions
12:52 AM 73.9 °F - 66.0 °F 76% 30.07 in 10.0 mi ESE 5.8 mph - N/A   Clear
1:52 AM 73.0 °F - 66.0 °F 79% 30.06 in 10.0 mi ESE 8.1 mph - N/A   Clear
2:52 AM 72.0 °F - 66.9 °F 84% 30.06 in 10.0 mi ESE 4.6 mph - N/A   Clear
3:52 AM 71.1 °F - 66.9 °F 87% 30.05 in 10.0 mi ESE 9.2 mph - N/A   Clear
4:52 AM 70.0 °F - 66.9 °F 90% 30.06 in 10.0 mi ESE 9.2 mph - N/A   Clear
5:02 AM 69.8 °F - 68.0 °F 94% 30.09 in 10.0 mi ESE 9.2 mph - N/A   Mostly Cloudy
5:21 AM 69.8 °F - 68.0 °F 94% 30.09 in 10.0 mi SE 9.2 mph - N/A   Mostly Cloudy
5:52 AM 71.1 °F - 68.0 °F 90% 30.06 in 10.0 mi ESE 9.2 mph - N/A   Overcast
6:11 AM 71.6 °F - 66.2 °F 83% 30.09 in 10.0 mi SE 11.5 mph - N/A   Overcast
6:32 AM 71.6 °F - 66.2 °F 83% 30.09 in 10.0 mi SE 4.6 mph - N/A   Overcast
6:38 AM 71.6 °F - 66.2 °F 83% 30.09 in 10.0 mi SSE 3.5 mph - N/A   Scattered Clouds
6:52 AM 71.1 °F - 66.9 °F 87% 30.07 in 10.0 mi Calm Calm - N/A   Scattered Clouds
6:54 AM 71.6 °F - 66.2 °F 83% 30.09 in 10.0 mi Variable 3.5 mph - N/A   Overcast
7:14 AM 71.6 °F - 66.2 °F 83% 30.10 in 10.0 mi Variable 3.5 mph - N/A   Overcast
7:52 AM 72.0 °F - 66.9 °F 84% 30.07 in 10.0 mi SSE 6.9 mph - N/A   Overcast
8:31 AM 73.4 °F - 66.2 °F 78% 30.09 in 10.0 mi SE 8.1 mph - N/A   Overcast
8:52 AM 73.9 °F - 66.9 °F 79% 30.06 in 10.0 mi South 10.4 mph - N/A   Overcast
9:09 AM 73.4 °F - 66.2 °F 78% 30.09 in 10.0 mi South 11.5 mph - N/A   Overcast
9:52 AM 77.0 °F - 66.9 °F 71% 30.06 in 10.0 mi SSE 6.9 mph - N/A   Mostly Cloudy
10:04 AM 77.0 °F - 66.2 °F 69% 30.09 in 10.0 mi South 5.8 mph - N/A   Scattered Clouds
10:52 AM 79.0 °F - 66.9 °F 66% 30.07 in 10.0 mi ESE 6.9 mph - N/A   Mostly Cloudy
11:52 AM 80.1 °F 82.3 °F 66.9 °F 64% 30.08 in 10.0 mi SE 5.8 mph - N/A   Mostly Cloudy
12:52 PM 84.0 °F 86.5 °F 66.9 °F 56% 30.06 in 10.0 mi Calm Calm - N/A   Scattered Clouds
1:52 PM 84.9 °F 87.1 °F 66.0 °F 53% 30.03 in 10.0 mi Variable 4.6 mph - N/A   Mostly Cloudy
2:52 PM 86.0 °F 88.2 °F 66.0 °F 51% 30.00 in 10.0 mi Variable 6.9 mph - N/A   Mostly Cloudy
3:52 PM 78.1 °F - 64.9 °F 64% 29.99 in 10.0 mi South 17.3 mph - N/A   Mostly Cloudy
4:52 PM 84.0 °F 86.3 °F 66.0 °F 55% 29.99 in 10.0 mi ESE 10.4 mph - 0.00 in   Mostly Cloudy
5:52 PM 82.9 °F 85.0 °F 66.0 °F 56% 29.99 in 10.0 mi SSE 6.9 mph - N/A   Mostly Cloudy
6:52 PM 82.9 °F 85.4 °F 66.9 °F 58% 29.98 in 10.0 mi SE 8.1 mph - N/A   Mostly Cloudy
7:52 PM 80.1 °F 82.1 °F 66.0 °F 62% 29.99 in 10.0 mi ESE 10.4 mph - N/A   Scattered Clouds
8:52 PM 79.0 °F - 66.9 °F 66% 29.99 in 10.0 mi SE 8.1 mph - N/A   Scattered Clouds
9:52 PM 75.0 °F - 66.0 °F 73% 30.01 in 10.0 mi SSE 6.9 mph - N/A   Mostly Cloudy
10:52 PM 73.9 °F - 66.0 °F 76% 30.02 in 10.0 mi SSE 6.9 mph - N/A   Scattered Clouds
11:52 PM 75.9 °F - 66.9 °F 74% 30.01 in 10.0 mi SSE 8.1 mph - N/A   Scattered Clouds